This is the latest recevied weather packets stored in our database for station/object M0JUI-1. If no packets are shown the sender has not sent any weather packets the latest 10 day(s).
| Time | Temp. | Humidity | Pressure | Rain* | Wind** | Luminosity | Snow |
|---|---|---|---|---|---|---|---|
| 1777901728 | 11.67° C | 24% | 1016.7 hPa | 0 mm | - | 139 W/m² | - |
| 1777901428 | 11.67° C | 24% | 1016.6 hPa | 0 mm | - | 140 W/m² | - |
| 1777901128 | 11.11° C | 24% | 1016.5 hPa | 0 mm | - | 138 W/m² | - |
| 1777900829 | 11.67° C | 24% | 1016.7 hPa | 0 mm | - | 142 W/m² | - |
| 1777900527 | 11.67° C | 24% | 1016.5 hPa | 0 mm | - | 148 W/m² | - |
| 1777900228 | 11.67° C | 24% | 1016.5 hPa | 0 mm | - | 163 W/m² | - |
| 1777899927 | 11.67° C | 23% | 1016.5 hPa | 0 mm | - | 171 W/m² | - |
| 1777899630 | 11.67° C | 23% | 1016.7 hPa | 0 mm | - | 177 W/m² | - |
| 1777899327 | 11.67° C | 23% | 1016.3 hPa | 0 mm | - | 177 W/m² | - |
| 1777899027 | 11.11° C | 23% | 1016.6 hPa | 0 mm | - | 179 W/m² | - |
| 1777898727 | 11.11° C | 22% | 1016.4 hPa | 0 mm | - | 185 W/m² | - |
| 1777898427 | 11.11° C | 22% | 1016.6 hPa | 0 mm | - | 184 W/m² | - |
| 1777898115 | 11.11° C | 21% | 1016.6 hPa | 0 mm | - | 165 W/m² | - |
| 1777897822 | 10.56° C | 22% | 1016.5 hPa | 0 mm | - | 154 W/m² | - |
| 1777897516 | 11.11° C | 22% | 1016.6 hPa | 0 mm | - | 138 W/m² | - |
| 1777897205 | 11.11° C | 23% | 1016.5 hPa | 0 mm | - | 122 W/m² | - |
| 1777896903 | 11.11° C | 24% | 1016.6 hPa | 0 mm | - | 121 W/m² | - |
| 1777896605 | 11.11° C | 24% | 1016.6 hPa | 0 mm | - | 115 W/m² | - |
| 1777896291 | 11.67° C | 24% | 1016.6 hPa | 0 mm | - | 115 W/m² | - |
| 1777895991 | 11.11° C | 24% | 1016.5 hPa | 0 mm | - | 136 W/m² | - |
| 1777895691 | 11.11° C | 24% | 1016.6 hPa | 0 mm | - | 120 W/m² | - |
| 1777895379 | 11.11° C | 24% | 1016.5 hPa | 0 mm | - | 110 W/m² | - |
| 1777895079 | 11.11° C | 24% | 1016.6 hPa | 0 mm | - | 109 W/m² | - |
| 1777894779 | 11.11° C | 24% | 1016.6 hPa | 0 mm | - | 119 W/m² | - |
| 1777894479 | 11.11° C | 23% | 1016.5 hPa | 0 mm | - | 135 W/m² | - |
* Rain latest hour (hover to see other rain measurements)
** Current wind speed in m/s (hover to see current wind gust speed)